Regional Weather Roundup
Issued by NWS

Home | Current Version | Previous Version | Graphics & Text | Print | Product List | Glossary Off
Versions: 1 2 3 4 5 6 7 8 9 10 11 12 13 14 15 16 17 18 19 20 21 22 23 24 25 26 27 28 29 30 31 32 33 34 35 36 37 38 39 40 41 42 43 44 45 46 47 48 49 50

230
ASUS43 KDTX 210210
RWRMI
MICHIGAN HOURLY REGIONAL WEATHER ROUNDUP
NATIONAL WEATHER SERVICE DETROIT/PONTIAC MI
1000 PM EDT FRI OCT 20 2017

NOTE: "FAIR" INDICATES FEW OR NO CLOUDS BELOW 12,000 FEET WITH NO
SIGNIFICANT WEATHER AND/OR OBSTRUCTION TO VISIBILITY.

MIZ047>049-052>055-059>063-066>070-074>076-081>083-210300-
SOUTHEAST LOWER MICHIGAN

CITY           SKY/WX    TMP DP  RH WIND       PRES   REMARKS
ADRIAN         CLEAR     58  48  69 S6        30.16S
ALMA           CLEAR     62  49  63 S7        30.11R
ANN ARBOR      CLEAR     49  46  90 CALM      30.14F
BAD AXE        CLEAR     57  44  61 S6        30.12S
CARO           CLEAR     60  46  58 S5        30.11S
DETROIT CITY   CLEAR     57  46  66 SE5       30.16S
DETROIT        MOCLDY    58  51  78 S6        30.16S
FLINT          CLEAR     59  47  64 S6        30.13S
GROSSE ILE     CLEAR     59  56  88 S5        30.15S
HILLSDALE      CLEAR     61  50  67 S7        30.14S
HOWELL         CLEAR     58  49  72 SE5       30.14S

CITY           SKY/WX    TMP DP  RH WIND       PRES   REMARKS
JACKSON        CLEAR     60  50  69 S7        30.14S
LAMBERTVILLE   CLEAR     61  48  62 S3        30.16R
LANSING        CLOUDY    62  50  64 S8        30.12F
LAPEER         FAIR      53  46  77 CALM      30.14S
MASON          CLEAR     61  51  70 S3        30.13S
MONROE         CLEAR     58  48  68 S3        30.15S
MT. CLEMENS    PTCLDY    56  50  80 S6        30.14R
PONTIAC        PTCLDY    59  46  62 S3        30.14S
PORT HOPE        N/A     61  45  55 VRB3      30.10R
PORT HURON     CLEAR     50  45  81 CALM      30.15S
TRI CITIES     CLEAR     64  52  64 S9        30.11R
MIDLAND        FAIR      64  51  64 S5        30.09R
TROY           CLEAR     57  44  61 CALM      30.17S
SAGINAW HB     CLEAR     63  50  63 S10       30.10R
$$
MIZ043>046-050>051-056>058-064>065-071>073-077>080-210300-
SOUTHWEST LOWER MICHIGAN

CITY           SKY/WX    TMP DP  RH WIND       PRES   REMARKS
BATTLE CREEK   CLEAR     62  52  69 S8        30.13R
BENTON HARBOR  PTCLDY    63  49  60 SE7       30.08F
BIG RAPIDS     CLOUDY    55  47  74 CALM      30.08R
COLDWATER      CLEAR     53  50  90 SE3       30.13S
FREMONT        FAIR      57  49  76 SE3       30.07S
HOLLAND        PTCLDY    60  50  69 S7        30.09S
GRAND RAPIDS   PTCLDY    63  53  70 S7        30.10R
IONIA          FAIR      60  50  69 S5        30.10S
KALAMAZOO      CLEAR     63  50  62 S6        30.12S
LUDINGTON      CLOUDY    67  50  53 S12G17    30.03S
MARSHALL       CLEAR     62  51  67 S5        30.12F
MOUNT PLEASANT CLEAR     64  51  62 CALM      30.09R
MUSKEGON       MOCLDY    64  51  62 S8        30.07S
SOUTH HAVEN    PTCLDY    64  50  61 CALM      30.08F
$$
MIZ016>042-210300-
NORTHERN LOWER MICHIGAN

CITY           SKY/WX    TMP DP  RH WIND       PRES   REMARKS
ALPENA         PTCLDY    53  50  89 CALM      30.05S
BEAVER ISLAND  CLEAR     65  51  60 SW15      29.99R
BELLAIRE       CLEAR     53  49  86 CALM      30.03R
CADILLAC       CLEAR     61  47  58 S8        30.07S
CHARLEVOIX     CLEAR     66  49  54 S8        30.04R
FRANKFORT      PTCLDY    67  51  55 S8G16     30.02S
GAYLORD        CLEAR     63  46  54 SW13      30.06R
GRAYLING       CLEAR     63  46  55 SW5       30.08R
HARBOR SPRINGS CLEAR     62  49  62 CALM      30.01S
HOUGHTON LAKE  CLEAR     61  47  59 S6        30.08S
MANISTEE       MOCLDY    54  49  83 NE5       30.03S
OSCODA         CLEAR     63  51  64 S13       30.06S
PELLSTON       CLEAR     68  49  50 SW8       30.01R
ROGERS CITY    CLEAR     64  50  61 S5        30.03S
TRAVERSE CITY  MOCLDY    68  49  50 VRB6      30.01S
$$
MIZ007>008-015-210300-
EASTERN UPPER MICHIGAN

CITY           SKY/WX    TMP DP  RH WIND       PRES   REMARKS
KINROSS        PTCLDY    59  53  80 S5        30.00S
MACKINAC ISLAN CLEAR     58  50  77 SW3       30.01R
NEWBERRY       CLEAR     57  56  97 S13G18    29.98R
S. S. MARIE    PTCLDY    59  51  75 E3        29.99R
MUNISING         N/A     60  53  77 S9        29.92R
$$
MIZ004>006-011>014-085-210300-
CENTRAL UPPER MICHIGAN

CITY           SKY/WX    TMP DP  RH WIND       PRES   REMARKS
MANISTIQUE     CLEAR     54  49  81 CALM      29.97F HAZE
ESCANABA       CLOUDY    58  54  86 S5        29.94F
MENOMINEE      CLOUDY    58  52  80 S5        29.95F
SAWYER-GWINN   CLEAR     61  50  67 S10       29.92S
$$
MIZ001>003-009>011-084-210300-
WESTERN UPPER MICHIGAN

CITY           SKY/WX    TMP DP  RH WIND       PRES   REMARKS
IRON MOUNTAIN  PTCLDY    63  46  54 S8        29.91S
HOUGHTON       CLOUDY    67  40  37 S8        29.81S
COPPER HARBOR    N/A     65  43  44 SW8       29.80S
IRONWOOD       CLOUDY    68  42  38 S14G24    29.79S
$$

ABBREVIATIONS USED IN REMARKS
   TC - TEMPERATURE IN CELSIUS
  WCI - WIND CHILL INDEX
   HX - HEAT INDEX
  VSB - VISIBILITY





USA.gov is the U.S. government's official web portal to all federal, state and local government web resources and services.